TimeEST,TemperatureF,Dew PointF,Humidity,Sea Level PressureIn,VisibilityMPH,Wind Direction,Wind SpeedMPH,Gust SpeedMPH,PrecipitationIn,Events,Conditions,WindDirDegrees,DateUTC
12:00 AM,51.8,50.0,94,29.94,10.0,WSW,15.0,26.5,N/A,Rain,Light Rain,250,2012-11-13 05:00:00
1:00 AM,48.2,44.6,87,30.04,15.0,West,15.0,24.2,N/A,Rain,Light Rain,260,2012-11-13 06:00:00
2:00 AM,46.4,42.8,87,30.06,25.0,WSW,12.7,20.7,N/A,Rain,Light Rain,250,2012-11-13 07:00:00
3:00 AM,44.6,41.0,87,30.09,10.0,WSW,15.0,28.8,N/A,Rain,Light Rain,250,2012-11-13 08:00:00
4:00 AM,41.0,37.4,87,30.10,15.0,WSW,15.0,28.8,N/A,Rain,Light Rain,240,2012-11-13 09:00:00
5:00 AM,41.0,37.4,87,30.14,25.0,SW,11.5,18.4,N/A,Rain,Light Rain,220,2012-11-13 10:00:00
6:00 AM,41.0,37.4,87,30.17,25.0,SW,11.5,17.3,N/A,Rain,Light Rain,220,2012-11-13 11:00:00
6:35 AM,39.2,37.4,93,30.17,25.0,SW,10.4,18.4,N/A,,Overcast,230,2012-11-13 11:35:00
7:00 AM,39.2,35.6,87,30.17,40.0,SW,11.5,17.3,N/A,,Mostly Cloudy,230,2012-11-13 12:00:00
8:00 AM,37.4,28.4,70,30.21,25.0,WSW,13.8,24.2,N/A,,Scattered Clouds,240,2012-11-13 13:00:00
9:00 AM,37.4,30.2,75,30.23,25.0,WSW,13.8,25.3,N/A,,Scattered Clouds,240,2012-11-13 14:00:00
10:00 AM,37.4,28.4,70,30.27,40.0,WSW,13.8,23.0,N/A,,Mostly Cloudy,240,2012-11-13 15:00:00
11:00 AM,39.2,30.2,70,30.27,40.0,WSW,13.8,29.9,N/A,,Mostly Cloudy,250,2012-11-13 16:00:00
12:00 PM,41.0,28.4,61,30.27,45.0,WSW,12.7,24.2,N/A,,Scattered Clouds,250,2012-11-13 17:00:00
1:00 PM,41.0,28.4,61,30.29,45.0,West,13.8,25.3,N/A,,Scattered Clouds,260,2012-11-13 18:00:00
2:00 PM,42.8,24.8,49,30.30,45.0,West,9.2,19.6,N/A,,Partly Cloudy,270,2012-11-13 19:00:00
3:00 PM,41.0,23.0,49,30.33,45.0,WSW,11.5,18.4,N/A,,Partly Cloudy,240,2012-11-13 20:00:00
4:00 PM,39.2,21.2,49,30.36,45.0,WSW,8.1,-,N/A,,Partly Cloudy,240,2012-11-13 21:00:00
5:00 PM,35.6,19.4,52,30.39,25.0,West,4.6,-,N/A,,Partly Cloudy,280,2012-11-13 22:00:00
6:00 PM,33.8,19.4,56,30.43,25.0,SW,3.5,-,N/A,,Clear,220,2012-11-13 23:00:00
7:00 PM,32.0,19.4,60,30.44,25.0,WSW,3.5,-,N/A,,Clear,250,2012-11-14 00:00:00
8:00 PM,30.2,19.4,64,30.47,25.0,West,2.3,-,N/A,,Clear,260,2012-11-14 01:00:00
9:00 PM,30.2,19.4,64,30.49,25.0,WSW,2.3,-,N/A,,Clear,250,2012-11-14 02:00:00
10:00 PM,28.4,19.4,69,30.51,25.0,West,3.5,-,N/A,,Clear,270,2012-11-14 03:00:00
11:00 PM,24.8,21.2,86,30.52,25.0,Calm,Calm,-,N/A,,Clear,0,2012-11-14 04:00:00